Flag for United Kingdom Weather past 2 weeks in Cheltenham, England, United Kingdom

Now
55 °F

Passing clouds.


Feels Like: 50 °F
Forecast: 44 / 56 °F
Wind: 22 mph from West

Location: Staverton Private

Current Time: Oct 21, 2014 at 1:01:39 PM

Latest Report: Oct 21, 2014 at 12:20 PM


Visibility: N/A

Pressure: 29.74 "Hg

Humidity: 63%

Dew point: 43 °F

Location of CheltenhamLocation

Historic Weather in Cheltenham — Graph

°F

Cheltenham temperature yesterday

Maximum temperature yesterday: 61 °F (at 12:20 PM)
Minimum temperature yesterday: 54 °F (at 6:50 AM)
Average temperature yesterday: 57 °F

Past Weeks' High & Low Weather Summary

 TemperatureHumidityPressure
High66 °F (Oct 17, 12:20 PM)100% (Oct 11, 8:20 AM)30.01 "Hg (Oct 11, 8:20 AM)
Low39 °F (Oct 12, 8:50 AM)48% (Oct 7, 1:50 PM)29.24 "Hg (Oct 8, 2:20 PM)
Average57 °F84%29.66 "Hg
* Reported Oct 6 11:20 AM — Oct 21 11:50 AM, Cheltenham, Weather by CustomWeather, © 2014

Note: Actual official high and low records may vary slightly from our data, if they occured in-between our weather recording intervals... More about our weather records

Advertising

Cheltenham weather history for previous 24 hours

 ConditionsComfort  
Time TempWeatherWind HumidityBarometerVisibility
11:50 AM
Oct 21
54 °FPassing clouds.24 mph67%29.74 "HgN/A
11:20 AM54 °FPassing clouds.17 mph67%29.71 "HgN/A
10:50 AM52 °FPassing clouds.15 mph72%29.71 "HgN/A
10:20 AM52 °FScattered clouds.16 mph72%29.68 "HgN/A
9:50 AM54 °FScattered clouds.10 mph67%29.68 "HgN/A
9:20 AM54 °FPassing clouds.13 mph67%29.65 "HgN/A
8:50 AM54 °FScattered clouds.16 mph72%29.65 "HgN/A
8:20 AM54 °FScattered showers. Passing clouds.16 mph77%29.59 "HgN/A
7:50 AM55 °FScattered showers. Passing clouds.12 mph82%29.56 "HgN/A
7:20 AM57 °FPassing clouds.17 mph88%29.53 "HgN/A
6:50 AM57 °FPassing clouds.10 mph88%29.50 "HgN/A
7:20 PM
Oct 20
55 °FPassing clouds.9 mph88%29.92 "HgN/A
6:50 PM55 °FScattered clouds.9 mph88%29.92 "HgN/A
6:20 PM55 °FScattered clouds.8 mph88%29.92 "HgN/A
5:50 PM57 °FScattered clouds.9 mph77%29.92 "HgN/A
5:20 PM57 °FScattered showers. Scattered clouds.8 mph82%29.92 "HgN/A
4:50 PM57 °FScattered showers. Scattered clouds.8 mph88%29.92 "HgN/A
4:20 PM57 °FSprinkles. Scattered clouds.10 mph88%29.95 "HgN/A
3:50 PM57 °FSprinkles. Scattered clouds.9 mph82%29.92 "HgN/A
3:20 PM59 °FScattered showers. Scattered clouds.9 mph82%29.95 "HgN/A
2:50 PM59 °FScattered clouds.12 mph77%29.95 "HgN/A
2:20 PM59 °FScattered clouds.12 mph77%29.95 "HgN/A
1:50 PM59 °FScattered showers. Scattered clouds.10 mph88%29.95 "HgN/A
1:20 PM57 °FScattered showers. Scattered clouds.13 mph88%29.98 "HgN/A
Weather by CustomWeather, © 2014

See weather overviewHow to use our weather pages